Temperature
20 18 18 18 18 19 20 19 19 20 20 20 19 19 19 18 18 17 17 18 18 18 18 18 18 18 17 17 17 17 16 16 16 16 16 15 15 15 15 15 15 15 15 15
18 18 19 20 19 20 19 19 19 19 20 20 19 19 19 18 17 18 18 18 18 18 18 18 18 17 17 17 17 16 16 16 16 16 15 15 15 15 15 15 15 15 15 14
19 20 21 20 20 20 19 19 19 19 19 19 19 19 18 18 18 18 18 18 18 18 18 18 18 17 17 17 16 16 16 16 15 15 15 15 15 15 15 15 15 15 14 14
19 20 21 20 20 20 19 20 20 19 18 17 19 18 18 18 17 17 17 17 18 18 18 18 18 17 17 17 16 16 16 16 15 15 15 15 15 15 15 15 14 14 14 14
19 20 20 20 21 21 20 20 20 19 18 17 17 17 17 17 17 17 16 17 17 17 17 17 17 17 17 17 16 16 16 15 15 15 15 15 15 15 14 14 14 14 14 14
20 21 21 21 21 21 20 19 18 16 16 17 18 17 17 16 17 17 16 16 17 17 17 17 17 17 17 17 16 16 15 15 15 15 15 15 14 14 14 14 14 14 14 14
20 21 21 21 21 20 20 18 17 18 17 17 18 17 17 17 17 17 16 16 17 17 17 17 17 17 16 16 16 15 15 15 15 15 15 15 14 14 14 14 14 14 14 14
19 20 21 21 21 20 19 18 18 18 18 17 17 17 17 17 17 17 17 17 17 17 16 16 17 16 16 16 16 15 15 15 15 15 15 14 14 14 14 14 14 13 13 13
19 19 21 21 21 20 19 18 18 17 17 17 17 17 18 17 16 16 16 16 16 16 16 17 17 16 16 16 16 15 15 15 15 15 14 14 14 14 14 13 13 13 13 13
19 19 20 21 21 20 19 17 16 16 17 18 18 18 17 17 16 15 15 15 16 16 16 16 17 16 16 16 16 15 15 15 15 14 14 14 14 14 14 13 13 13 13 13
19 19 20 20 20 20 19 18 16 15 16 17 17 17 17 16 16 15 15 15 16 16 16 16 16 16 16 16 15 15 15 15 15 14 14 14 14 14 13 13 13 13 13 13
17 16 17 19 20 20 19 18 16 17 17 15 16 16 17 16 15 15 15 16 16 16 16 16 16 16 16 16 15 15 15 15 15 14 14 14 14 13 13 13 13 13 13 13
17 17 17 18 19 19 19 18 16 15 14 14 16 17 16 15 15 15 15 16 16 16 16 16 16 16 16 15 15 15 15 15 14 14 14 14 14 13 13 13 13 13 13 13
17 16 17 18 18 18 19 18 17 16 15 15 16 17 16 15 14 14 15 15 16 16 16 16 16 16 15 15 15 15 15 15 14 14 14 14 13 13 13 13 13 13 13 12
17 16 17 17 18 19 18 18 17 17 16 16 17 16 16 15 14 15 15 15 15 15 15 15 15 15 15 15 15 15 15 14 14 14 14 14 13 13 13 13 12 12 12 12
15 16 17 18 18 18 18 18 18 17 17 16 17 16 15 15 15 15 14 14 15 15 15 15 15 15 15 15 15 15 15 14 14 14 14 13 13 13 13 13 13 13 12 12
14 15 16 16 18 18 17 17 17 17 16 16 16 16 15 14 14 14 14 14 15 15 15 15 15 15 15 15 15 14 15 14 14 14 14 13 13 13 13 13 13 13 13 12
14 14 13 15 17 17 17 17 17 17 16 16 16 15 14 14 15 15 15 15 15 15 15 15 15 15 15 15 15 15 14 14 14 14 14 13 13 13 13 13 13 13 12 12
13 13 13 14 15 16 17 17 17 16 16 16 15 15 15 15 15 15 16 16 16 15 15 15 15 15 15 15 14 14 14 14 14 14 14 13 13 13 13 13 13 12 12 12
13 13 13 14 16 16 16 17 17 17 16 16 15 14 14 14 14 14 16 16 15 15 15 15 15 15 15 14 14 14 14 14 14 14 13 13 13 13 13 13 12 12 12 12
14 13 13 13 15 15 15 16 17 16 15 15 15 15 14 14 15 16 16 16 15 15 15 15 15 15 15 14 14 14 13 13 13 13 13 13 13 13 12 12 12 12 12 12
13 13 13 12 14 15 15 15 15 14 15 15 15 16 15 16 16 16 16 15 15 15 15 15 15 14 14 14 14 13 13 13 13 13 13 13 13 13 12 12 12 12 12 12
12 12 12 12 13 14 14 15 15 16 15 16 16 16 16 15 15 15 15 15 15 14 14 14 14 14 14 14 13 13 13 13 13 13 13 13 13 13 12 12 12 12 12 12
12 11 11 12 13 13 14 15 15 16 16 16 16 16 16 16 15 15 15 15 14 14 14 14 13 13 13 13 13 13 13 13 13 12 13 12 13 12 12 12 12 12 12 12
11 11 11 12 12 13 14 15 15 15 16 16 16 16 16 16 15 15 15 14 14 14 14 13 13 13 13 13 13 13 13 13 12 12 12 12 12 12 12 12 12 12 12 12
10 11 11 11 12 11 13 14 14 15 15 15 15 15 15 15 15 15 14 14 14 14 13 13 13 13 13 13 13 13 12 12 12 12 12 12 12 12 12 12 12 12 12 12
Wind_Speed
3 3 5 9 8 6 4 2 4 6 4 1 2 4 4 2 3 4 4 4 5 4 2 3 3 4 4 3 3 3 2 1 2 1 1 0 1 1 1 1 0 0 1 2
3 5 10 6 5 5 4 3 3 4 2 0 1 4 3 3 4 5 6 6 6 4 3 3 3 4 3 3 3 3 2 1 1 1 0 1 1 0 0 1 2 1 1 1
7 7 3 6 5 5 4 5 5 3 3 3 1 5 3 2 1 2 2 3 4 6 6 4 4 4 4 3 3 3 2 1 1 1 1 2 2 2 2 2 2 2 0 1
5 5 3 4 5 6 5 6 5 3 1 2 1 3 6 2 2 2 3 3 4 4 4 4 4 4 4 3 2 2 2 2 2 2 2 2 1 1 1 0 0 2 1 1
6 4 5 5 6 7 5 2 2 2 3 1 1 2 7 2 3 5 4 4 3 3 4 5 4 4 3 3 2 2 2 1 1 2 2 2 1 1 0 1 1 2 2 1
6 3 5 5 2 4 4 4 5 4 4 1 3 3 6 3 5 4 4 4 3 3 3 3 3 3 2 2 2 2 2 1 1 1 2 2 2 1 1 1 1 2 2 2
4 3 3 3 2 1 4 5 3 4 3 4 2 3 7 5 4 4 5 5 4 4 4 4 3 3 2 2 2 2 2 1 1 1 1 1 2 2 2 1 0 1 1 1
2 4 4 3 5 5 5 7 6 4 4 4 1 4 6 3 2 1 3 4 4 5 5 5 4 4 3 2 1 1 1 2 1 1 1 0 1 1 1 1 1 1 1 1
5 4 3 3 3 7 5 4 5 5 1 1 4 5 5 1 3 2 2 4 4 4 4 4 3 3 3 2 2 2 2 1 1 1 1 1 1 1 1 1 1 1 1 1
6 3 3 2 4 2 4 7 5 4 3 2 4 4 4 4 4 1 1 3 3 3 3 3 3 3 3 3 2 2 2 2 1 1 1 1 1 1 1 1 1 1 0 0
4 4 2 2 2 4 3 4 4 4 4 4 3 5 3 5 5 4 4 4 5 5 4 4 3 3 2 2 2 2 2 2 1 1 1 1 1 1 1 1 1 1 0 0
3 4 1 4 3 3 4 5 6 4 3 3 3 5 4 3 3 3 3 3 3 4 4 4 3 2 2 2 2 2 2 2 2 2 1 1 1 1 1 1 1 1 1 1
5 5 2 5 4 2 2 3 3 5 5 4 3 5 3 3 1 1 2 2 2 3 3 2 2 3 3 3 3 3 3 3 3 2 2 1 1 1 1 1 1 1 1 0
5 4 6 6 6 3 2 1 4 5 4 4 5 5 5 4 2 1 1 2 2 3 3 2 2 3 3 3 3 3 3 3 3 2 2 2 2 2 2 1 1 1 1 1
4 3 3 4 3 2 2 2 3 4 5 6 5 4 6 4 4 2 1 2 2 2 2 3 3 3 3 2 2 2 3 3 2 2 2 3 2 1 1 1 1 1 1 1
3 3 2 1 1 2 1 1 2 2 2 3 2 4 4 2 1 1 1 2 2 2 3 2 2 2 2 3 3 2 2 2 3 3 3 2 2 1 2 2 2 1 1 1
2 4 3 2 2 2 1 3 2 2 1 3 3 4 1 1 1 3 3 3 3 3 3 3 3 3 4 4 3 3 3 2 2 3 3 3 2 3 2 2 2 2 2 1
5 4 3 2 2 2 5 3 3 3 1 2 2 3 3 3 3 2 3 4 4 3 3 3 3 3 3 3 3 2 2 2 3 3 3 3 3 3 2 2 2 2 2 2
4 6 4 3 3 3 4 1 2 3 2 2 2 2 1 2 3 2 2 2 4 4 3 3 3 2 1 2 2 2 2 2 2 3 3 3 3 3 2 3 3 3 2 2
5 5 5 3 3 4 4 5 2 3 2 3 2 2 1 3 1 4 3 1 2 1 1 1 0 1 0 1 1 2 1 2 3 3 3 3 3 4 4 4 3 3 3 3
3 3 3 3 2 4 4 5 2 3 5 4 2 3 4 4 4 3 2 2 2 1 1 1 1 1 1 1 2 2 1 3 4 2 2 2 3 4 4 3 2 2 2 2
3 3 3 3 2 4 4 2 2 5 3 2 2 3 3 2 1 0 1 2 1 1 0 1 1 0 0 1 2 2 2 3 2 1 1 1 1 2 2 2 2 1 2 1
2 3 4 5 5 3 2 2 2 2 2 2 2 2 2 1 1 0 1 1 1 1 1 1 1 0 1 1 2 3 4 2 1 0 1 1 1 1 2 3 2 1 1 1
2 1 2 0 2 3 4 3 2 2 2 2 2 2 3 2 1 1 1 1 1 0 1 1 1 0 2 2 2 3 3 2 2 1 1 1 1 1 1 2 2 3 3 3
2 1 1 1 3 5 5 4 3 3 3 2 0 1 3 3 2 2 1 2 1 1 1 1 2 2 3 2 2 2 2 1 1 2 1 1 1 2 2 2 3 4 5 5
1 1 1 3 3 2 5 5 3 2 2 1 0 1 1 2 2 2 1 2 2 1 1 1 1 2 2 2 2 2 2 2 2 2 2 2 2 2 2 2 3 4 5 6
Wind_Direction
120 110 215 219 199 198 189 206 265 272 275 260 253 274 288 194 180 191 195 191 197 205 185 164 164 154 141 137 154 172 168 141 112 89 92 70 12 358 352 337 347 166 181 181
73 239 232 204 179 175 174 209 257 287 308 168 290 297 289 191 201 204 199 198 199 187 159 160 159 155 161 165 177 172 169 152 148 145 138 174 146 86 11 1 13 9 123 156
192 235 183 163 174 176 207 196 218 238 338 21 20 328 312 307 237 214 216 203 200 194 186 179 167 168 172 180 189 184 172 171 162 130 96 74 57 48 39 24 10 352 2 163
222 245 187 186 205 184 245 228 202 195 112 300 60 285 285 285 288 240 227 207 206 205 188 179 174 176 184 187 174 155 159 178 172 152 138 134 130 131 226 282 339 353 33 130
232 205 186 211 223 184 211 203 165 161 155 351 340 199 285 300 262 256 239 220 212 199 186 180 174 179 178 162 151 146 149 168 161 147 153 146 135 141 40 22 43 21 18 37
242 222 198 207 209 167 149 73 52 54 81 302 240 184 280 248 235 250 232 217 201 180 166 161 151 139 138 139 137 137 145 177 187 147 142 156 157 134 100 44 25 16 20 28
297 278 230 165 120 72 112 99 27 356 9 255 229 193 253 258 239 218 211 201 188 169 161 158 153 152 163 162 156 150 157 197 218 184 177 170 173 162 161 166 147 41 27 4
203 280 235 188 179 180 182 152 163 203 226 270 299 238 258 282 287 210 169 166 165 167 168 171 172 167 171 175 179 166 171 221 224 214 232 155 136 141 155 167 167 198 217 250
181 248 271 216 176 148 147 173 166 138 153 272 278 283 300 5 12 38 117 143 174 182 179 177 166 172 173 177 196 197 191 207 217 216 195 165 138 150 164 165 171 202 242 257
163 215 267 254 88 74 138 142 107 130 162 248 289 281 272 282 276 275 174 177 190 185 184 182 179 188 188 186 192 187 191 201 205 204 196 172 174 184 159 137 151 169 234 334
142 161 304 34 163 191 123 110 114 126 160 165 252 273 240 232 225 210 210 201 194 191 194 199 197 193 184 171 177 189 203 199 195 193 194 151 167 157 141 161 197 192 161 99
134 126 236 266 270 173 152 159 147 154 209 176 188 263 307 261 227 184 193 202 203 196 198 196 192 180 182 191 190 199 220 226 225 204 182 174 157 132 139 220 245 214 196 189
140 118 71 347 342 26 114 146 142 126 123 154 181 261 337 24 53 157 177 184 193 194 191 183 176 193 208 214 211 212 220 229 226 198 186 172 160 167 208 239 245 230 182 151
120 118 162 196 222 209 217 192 147 127 149 192 220 253 309 335 329 282 179 171 173 183 181 182 197 215 221 219 215 215 223 218 208 193 192 196 207 210 221 229 237 234 160 155
111 145 190 220 236 185 192 217 165 167 181 186 228 234 271 267 245 230 185 148 135 154 189 200 207 221 226 222 222 219 227 217 196 188 202 217 217 200 203 212 222 216 191 208
92 144 141 302 212 153 123 329 192 191 184 196 225 267 279 282 107 103 127 141 172 207 218 222 221 229 231 228 231 231 225 217 182 189 213 216 197 187 204 217 214 213 222 224
122 133 126 220 270 65 325 265 194 173 179 171 206 250 297 28 187 204 198 189 207 219 208 206 214 224 232 229 220 223 228 222 197 206 220 211 202 209 217 216 204 212 222 213
147 127 128 135 77 212 240 251 166 154 200 194 220 250 210 217 221 218 199 194 212 216 209 214 222 234 243 237 225 215 203 201 208 215 223 217 206 216 222 209 215 225 224 220
151 137 124 126 159 259 293 290 177 174 259 239 216 270 15 67 45 331 255 199 209 211 210 216 223 233 226 226 217 186 192 204 214 221 225 223 212 212 215 224 230 225 219 233
70 98 116 127 151 218 260 299 278 128 275 282 187 177 125 97 46 275 265 234 257 255 204 191 177 30 44 240 157 154 187 201 230 235 234 225 210 209 221 231 234 227 217 232
63 64 110 142 186 254 291 310 61 136 252 291 207 183 171 191 216 247 222 215 209 207 209 137 120 103 251 186 138 157 190 231 242 240 235 225 212 212 220 230 231 218 213 221
150 141 158 138 163 258 319 59 152 225 263 254 221 206 199 219 258 237 172 188 167 152 124 141 131 206 303 142 152 176 224 243 250 230 235 233 226 220 210 206 221 203 186 205
159 187 184 181 201 246 275 238 265 203 224 230 212 225 185 192 253 299 150 165 178 176 163 155 147 293 328 175 176 203 235 232 211 209 246 254 245 223 193 195 205 205 197 216
338 45 119 239 292 311 315 322 346 354 290 265 214 186 169 204 220 192 155 172 174 165 176 157 133 249 284 268 240 230 234 199 186 219 257 256 247 260 235 212 208 210 220 228
294 24 49 298 304 339 344 332 321 334 348 347 74 152 173 167 176 182 180 195 188 172 184 174 185 223 260 275 280 277 248 189 198 227 254 262 255 246 259 251 232 226 230 222
303 184 182 241 257 251 285 302 311 306 302 291 60 59 103 146 164 174 197 207 177 174 172 182 224 244 264 272 275 284 267 202 199 231 247 247 247 252 255 265 282 257 244 250
Height
1485 1491 1495 1491 1491 1491 1494 1498 1500 1494 1487 1489 1490 1489 1485 1485 1486 1486 1487 1487 1488 1489 1491 1492 1493 1494 1495 1496 1497 1497 1498 1498 1498 1498 1498 1499 1499 1499 1499 1500 1500 1500 1500 1500
1489 1491 1482 1482 1486 1489 1493 1498 1498 1492 1487 1488 1491 1489 1485 1484 1484 1484 1485 1486 1487 1488 1489 1490 1491 1492 1494 1495 1496 1496 1496 1497 1497 1497 1497 1497 1497 1498 1498 1498 1498 1498 1498 1498
1487 1482 1477 1481 1485 1489 1491 1495 1494 1493 1490 1488 1492 1494 1488 1484 1484 1484 1485 1485 1486 1487 1488 1489 1490 1491 1493 1493 1494 1495 1496 1496 1496 1496 1496 1496 1496 1496 1497 1497 1497 1497 1497 1497
1483 1477 1478 1480 1483 1485 1492 1484 1486 1490 1497 1503 1497 1508 1493 1487 1485 1484 1483 1484 1485 1486 1487 1488 1489 1490 1491 1492 1493 1494 1495 1495 1495 1495 1495 1495 1495 1495 1495 1496 1496 1496 1496 1496
1480 1475 1477 1480 1478 1479 1483 1480 1484 1489 1496 1503 1501 1507 1499 1488 1488 1484 1482 1482 1483 1484 1485 1486 1488 1489 1491 1492 1492 1493 1494 1494 1494 1494 1495 1495 1495 1495 1495 1495 1495 1495 1495 1496
1473 1471 1472 1472 1472 1474 1477 1483 1489 1495 1502 1511 1501 1506 1502 1491 1485 1482 1481 1481 1481 1483 1484 1486 1487 1489 1490 1491 1492 1492 1493 1493 1494 1494 1494 1494 1494 1494 1494 1494 1494 1494 1495 1495
1477 1472 1469 1469 1474 1477 1480 1494 1509 1510 1516 1512 1498 1501 1497 1481 1478 1478 1478 1479 1480 1481 1483 1485 1486 1488 1489 1490 1491 1491 1492 1492 1493 1493 1493 1493 1493 1493 1493 1493 1494 1494 1494 1494
1485 1483 1470 1467 1471 1478 1481 1489 1507 1515 1516 1510 1499 1501 1489 1478 1476 1475 1476 1477 1479 1480 1482 1484 1485 1487 1488 1489 1490 1491 1491 1492 1492 1492 1492 1492 1492 1493 1493 1493 1493 1494 1494 1494
1483 1482 1466 1464 1465 1471 1481 1488 1487 1502 1505 1510 1504 1494 1482 1476 1476 1476 1476 1477 1478 1479 1481 1482 1484 1486 1487 1488 1490 1490 1491 1492 1492 1492 1492 1492 1492 1492 1492 1493 1493 1493 1494 1494
1472 1480 1470 1465 1465 1469 1474 1481 1493 1503 1511 1513 1503 1497 1492 1481 1479 1477 1477 1477 1478 1479 1481 1482 1484 1485 1487 1488 1490 1490 1491 1492 1492 1492 1492 1492 1492 1492 1492 1493 1493 1493 1493 1493
1468 1478 1475 1470 1472 1474 1478 1483 1490 1500 1502 1510 1511 1502 1479 1477 1475 1475 1475 1476 1477 1478 1480 1481 1483 1484 1486 1488 1489 1490 1491 1491 1492 1492 1492 1492 1492 1492 1492 1492 1492 1492 1492 1492
1468 1478 1484 1475 1467 1466 1470 1477 1486 1496 1500 1503 1506 1500 1474 1473 1472 1473 1474 1475 1477 1478 1480 1481 1483 1484 1486 1487 1488 1488 1489 1490 1490 1491 1491 1492 1492 1492 1492 1492 1491 1491 1491 1491
1467 1478 1489 1485 1480 1472 1472 1475 1480 1487 1497 1504 1505 1494 1474 1472 1472 1473 1474 1475 1476 1478 1479 1481 1482 1483 1484 1486 1486 1487 1488 1489 1489 1490 1490 1491 1491 1491 1491 1491 1491 1490 1490 1490
1462 1475 1483 1488 1482 1475 1475 1476 1479 1484 1495 1498 1494 1486 1477 1475 1473 1473 1474 1475 1476 1477 1478 1480 1481 1482 1483 1484 1485 1486 1486 1487 1488 1489 1489 1489 1490 1490 1490 1490 1490 1490 1489 1489
1462 1474 1474 1473 1470 1470 1472 1474 1476 1479 1482 1487 1483 1482 1477 1474 1473 1472 1473 1474 1475 1476 1477 1478 1479 1481 1482 1483 1483 1484 1485 1486 1487 1487 1487 1488 1488 1489 1489 1489 1489 1489 1489 1488
1465 1472 1473 1473 1469 1469 1472 1472 1472 1474 1476 1478 1478 1478 1472 1471 1472 1472 1473 1473 1474 1475 1476 1477 1478 1479 1480 1481 1482 1483 1483 1484 1485 1485 1486 1486 1487 1487 1487 1488 1488 1488 1487 1487
1469 1472 1478 1480 1472 1470 1480 1474 1473 1475 1474 1475 1478 1476 1472 1471 1471 1471 1472 1472 1473 1474 1475 1476 1477 1478 1478 1479 1480 1481 1481 1483 1483 1484 1485 1485 1485 1485 1486 1486 1486 1486 1486 1485
1468 1474 1481 1482 1478 1487 1479 1467 1467 1470 1471 1471 1471 1470 1469 1469 1469 1470 1470 1471 1472 1472 1473 1474 1475 1476 1476 1477 1478 1479 1480 1481 1481 1482 1483 1483 1484 1484 1484 1484 1484 1484 1484 1484
1463 1471 1481 1487 1486 1483 1473 1466 1467 1470 1472 1468 1469 1468 1468 1468 1469 1470 1470 1470 1471 1472 1472 1473 1474 1475 1475 1475 1476 1477 1478 1479 1480 1480 1480 1481 1482 1482 1482 1482 1482 1482 1482 1481
1464 1468 1478 1483 1484 1487 1476 1465 1463 1467 1473 1466 1466 1467 1468 1468 1473 1470 1468 1469 1470 1471 1471 1472 1473 1474 1474 1474 1475 1475 1476 1477 1477 1478 1479 1479 1480 1480 1480 1480 1479 1479 1479 1478
1472 1475 1480 1483 1483 1479 1469 1464 1463 1476 1475 1466 1465 1465 1466 1466 1467 1467 1466 1467 1469 1470 1471 1471 1472 1472 1473 1473 1473 1474 1474 1475 1476 1476 1477 1477 1477 1477 1477 1477 1476 1476 1476 1476
1474 1478 1481 1484 1485 1483 1467 1465 1469 1469 1465 1464 1464 1464 1464 1464 1464 1464 1465 1466 1467 1468 1469 1470 1470 1471 1471 1472 1472 1472 1473 1474 1474 1474 1474 1474 1475 1475 1475 1475 1475 1474 1474 1474
1473 1474 1475 1476 1477 1470 1466 1466 1465 1464 1464 1463 1463 1463 1463 1463 1463 1464 1464 1466 1467 1467 1468 1469 1469 1470 1470 1471 1471 1471 1472 1472 1472 1472 1473 1473 1473 1473 1473 1473 1473 1472 1472 1471
1471 1470 1471 1472 1469 1467 1466 1464 1464 1463 1463 1463 1462 1462 1462 1462 1463 1463 1464 1465 1466 1467 1467 1468 1468 1469 1469 1469 1470 1470 1470 1470 1470 1470 1471 1471 1471 1471 1471 1471 1471 1470 1470 1469
1472 1471 1472 1472 1468 1466 1464 1464 1464 1463 1462 1462 1461 1461 1461 1461 1462 1463 1463 1463 1464 1465 1466 1467 1467 1467 1468 1468 1468 1469 1469 1469 1469 1469 1469 1469 1469 1469 1468 1468 1468 1468 1468 1467
1472 1472 1473 1472 1468 1468 1466 1464 1464 1462 1461 1461 1461 1460 1461 1461 1461 1462 1462 1463 1463 1464 1465 1465 1466 1466 1467 1467 1467 1468 1468 1468 1467 1467 1467 1467 1467 1467 1466 1466 1466 1465 1465 1465